Regional Weather Roundup
Issued by NWS

Home | Current Version | Previous Version | Graphics & Text | Print | Product List | Glossary On
Versions: 1 2 3 4 5 6 7 8 9 10 11 12 13 14 15 16 17 18 19 20 21 22 23 24 25 26 27
000
ASUS45 KPSR 180810
RWRAZ

ARIZONA HOURLY REGIONAL WEATHER ROUNDUP
NATIONAL WEATHER SERVICE PHOENIX AZ
100 AM MST FRI AUG 18 2017

NOTE: FAIR INDICATES FEW OR NO CLOUDS BELOW 12,000 FEET WITH NO
SIGNIFICANT WEATHER AND/OR OBSTRUCTIONS TO VISIBILITY.

AZZ001>003-036-180900-
NORTHWEST ARIZONA

CITY           SKY/WX    TMP DP  RH WIND       PRES   REMARKS
BULLHEAD CITY  CLEAR     90  36  14 CALM      29.85S
KINGMAN        CLEAR     68  36  30 CALM      30.08S
$$

AZZ004>008-015-016-018-180900-
NORTH CENTRAL ARIZONA

CITY           SKY/WX    TMP DP  RH WIND       PRES   REMARKS
GRAND CANYON   CLEAR     49  34  56 CALM      30.32F
WILLIAMS       CLEAR     52  37  58 SE7       30.33S
PRESCOTT       CLEAR     63  39  41 S8        30.20F
FLAGSTAFF      CLEAR     48  37  65 CALM      30.35S
PAYSON           N/A     64  27  24 NE5       30.22S
PAGE           CLEAR     80  36  20 SW5       30.08F
$$

AZZ009>014-017-180900-
NORTHEAST ARIZONA

CITY           SKY/WX    TMP DP  RH WIND       PRES   REMARKS
WINSLOW        CLEAR     67  30  25 E3        30.17S
SAINT JOHNS    CLEAR     65  36  34 SW5       30.23F
WINDOW ROCK    CLEAR     51  29  42 CALM      30.30S
SHOW LOW       CLEAR     63  30  29 CALM      30.31S
$$

AZZ540-542>544-546-548-180900-
GREATER PHOENIX AREA

CITY           SKY/WX    TMP DP  RH WIND       PRES   REMARKS
PHOENIX        CLEAR     86  36  16 E5        29.88S
BUCKEYE        CLEAR     77  37  24 N9        29.89S
LUKE AFB       CLEAR     80  48  32 NW7       29.88S
DEER VALLEY    CLEAR     84  29  13 NE9       29.91R
SCOTTSDALE     CLEAR     81  37  20 CALM      29.92S
MESA-GATEWAY   CLEAR     75  41  29 SE5       29.91F
$$

AZZ539-553-180900-
SOUTHWEST MARICOPA COUNTY AND PINAL COUNTY

CITY           SKY/WX    TMP DP  RH WIND       PRES   REMARKS
CASA GRANDE    CLEAR     76  52  43 N5        29.92F
GILA BEND      FAIR      84  43  23 SE7       29.87S
$$

AZZ503-504-507>509-180900-
SOUTHEAST ARIZONA

CITY           SKY/WX    TMP DP  RH WIND       PRES   REMARKS
TUCSON         CLEAR     77  45  31 SE6       30.04S
DAVIS-MONTHAN  CLEAR     75  42  30 SE5       30.02S
NOGALES        PTCLDY    64  45  49 CALM      30.13S
SIERRA VISTA   PTCLDY    67  39  35 SW5       30.18F
DOUGLAS        PTCLDY    65  50  58 NW5       30.12S
SAFFORD        PTCLDY    71  44  37 MISG      30.03S
$$

AZZ532-180900-
SOUTHWEST ARIZONA

CITY           SKY/WX    TMP DP  RH WIND       PRES   REMARKS
YUMA           CLEAR     85  60  42 S10       29.83S
$$

CAZ041-043-047-048-061-525>527-560>570-180900-
SOUTHERN CALIFORNIA

CITY           SKY/WX    TMP DP  RH WIND       PRES   REMARKS
DOWNTOWN L.A.  CLEAR     66  61  84 W3        29.98F
L.A. AIRPORT   PTCLDY    65  62  90 W7        29.99S
SAN DIEGO      PTCLDY    68  62  81 N3        30.01S
BURBANK        CLEAR     67  59  75 CALM      29.98F
ONTARIO        CLEAR     68  59  73 W5        29.99F
RIVERSIDE      CLEAR     68  61  78 W5        29.99F
PALM SPRINGS   CLEAR     85  54  34 NW8       29.86F
EL CENTRO NAS  CLEAR     84  50  30 NW6       29.83S
IMPERIAL       CLEAR     87  55  33 NW6       29.80S
BLYTHE         CLEAR     88  50  27 S9        29.84R
NEEDLES        CLEAR     88  37  16 CALM      29.86S
$$

NVZ020-UTZ003-180900-
SOUTHERN NEVADA-UTAH

CITY           SKY/WX    TMP DP  RH WIND       PRES   REMARKS
LAS VEGAS      CLEAR     87  39  18 SW6       29.95S
SALT LAKE CITY CLEAR     70  45  40 CALM      30.10F
$$

NMZ009-TXZ055-180900-
NEW MEXICO-WEST TEXAS

CITY           SKY/WX    TMP DP  RH WIND       PRES   REMARKS
ALBUQUERQUE    CLOUDY    72  38  29 SE6       30.17S
EL PASO        PTCLDY    78  60  53 SE8       30.09F
$$


........................KEY........................
SKY/WX - SKY CONDITION/WEATHER
TMP    - TEMPERATURE IN FAHRENHEIT
DP     - DEW POINT IN FAHRENHEIT
RH     - RELATIVE HUMIDITY IN PERCENT
WIND   - DIRECTION AND SPEED IN MILES PER HOUR (MPH)
VRB    - VARIABLE WIND DIRECTION
PRES   - MEAN SEA LEVEL PRESSURE IN INCHES OF MERCURY
         F - FALLING PRESSURE   R - RISING PRESSURE
         S - STEADY PRESSURE
VSB    - VISIBILITY IN MILES
HX     - HEAT INDEX IN FAHRENHEIT
WCI    - WIND CHILL INDEX IN FAHRENHEIT
TC     - TEMPERATURE IN CELSIUS WHICH IS ALSO KNOWN AS
         TEMPERATURE IN CENTIGRADE
AFB    - AIR FORCE BASE
         LUKE AFB IS LUKE AIR FORCE BASE
         DAVIS-MONTHAN IS DAVIS-MONTHAN AIR FORCE BASE
NAS    - NAVAL AIR STATION
         EL CENTRO NAS IS EL CENTRO NAVAL AIR STATION
N/A    - NOT AVAILABLE





USA.gov is the U.S. government's official web portal to all federal, state and local government web resources and services.